Weather History for Valdez Airport, AK

Change the Weather History Date:

Wednesday, February 12, 2014

  Actual Average Record
Temperature  
Mean Temperature 4 °F -  
Max Temperature 8 °F 30 °F 50 °F (1986)
Min Temperature 1 °F 19 °F -2 °F (1972)
Degree Days  
Heating Degree Days 60    
Moisture  
Dew Point -5 °F    
Average Humidity 62    
Maximum Humidity 85    
Minimum Humidity 44    
Precipitation  
Precipitation 0.00 in - - ()
Sea Level Pressure  
Sea Level Pressure 29.21 in    
Wind  
Wind Speed 6 mph (ENE)    
Max Wind Speed 15 mph    
Max Gust Speed 28 mph    
Visibility 6 miles    
Events      
Averages and records for this station are not official NWS values.
T = Trace of Precipitation, MM = Missing Value Source: NWS Daily Summary

Daily Weather History Graph

Daily Weather History Graph

Search for Another Location

Airport:

Trip Planner

Search our weather history database for the weather conditions in past years. The results will help you decide how hot, cold, wet, or windy it might be!

Date:

Astronomy

Feb. 12, 2014 Rise Set
Actual Time 8:35 AM AKST 5:24 PM AKST
Civil Twilight 7:48 AM AKST 6:10 PM AKST
Nautical Twilight 6:58 AM AKST 7:01 PM AKST
Astronomical Twilight 6:08 AM AKST 7:51 PM AKST
Moon 3:35 PM AKST (2/12) 7:12 AM AKST (2/12)
Length of Visible Light 10h 21m
Length of Day
8h 49m
Waxing Gibbous, 96% of the Moon is Illuminated
Feb 12
Waxing Gibbous
Feb 14
Full
Feb 22
Last Quarter
Feb 28
New
Mar 8
First Quarter

Hourly Weather History & Observations

Time (AKST) Temp. Windchill Dew Point Humidity Pressure Visibility Wind Dir Wind Speed Gust Speed Precip Events Conditions
12:16 AM 3.2 °F -11.3 °F -9.4 °F 56% 29.44 in 10.0 mi ESE 9.2 mph - N/A   Clear
12:36 AM 5.0 °F -5.6 °F -9.4 °F 52% 29.44 in 10.0 mi ENE 5.8 mph - N/A   Clear
12:56 AM 5.0 °F -5.6 °F -9.4 °F 52% 29.43 in 10.0 mi SE 5.8 mph - N/A   Clear
1:16 AM 1.4 °F -9.9 °F -11.2 °F 56% 29.43 in 10.0 mi East 5.8 mph - N/A   Clear
1:36 AM 3.2 °F -6.2 °F -7.6 °F 61% 29.42 in 10.0 mi East 4.6 mph - N/A   Clear
1:56 AM 3.2 °F -9.1 °F -9.4 °F 56% 29.41 in 10.0 mi East 6.9 mph - N/A   Clear
2:16 AM 5.0 °F -9.1 °F -11.2 °F 47% 29.41 in 10.0 mi East 9.2 mph - N/A   Clear
2:36 AM 5.0 °F -8.1 °F -11.2 °F 47% 29.40 in 10.0 mi East 8.1 mph - N/A   Clear
2:56 AM 3.2 °F - -11.2 °F 51% 29.39 in 10.0 mi Calm Calm - N/A   Clear
3:16 AM 3.2 °F -9.1 °F -11.2 °F 51% 29.39 in 10.0 mi East 6.9 mph - N/A   Clear
3:36 AM 5.0 °F -6.9 °F -11.2 °F 47% 29.38 in 10.0 mi East 6.9 mph - N/A   Clear
3:56 AM 3.2 °F -9.1 °F -11.2 °F 51% 29.38 in 10.0 mi East 6.9 mph 19.6 mph N/A   Clear
4:16 AM 3.2 °F -11.3 °F -11.2 °F 51% 29.37 in 10.0 mi East 9.2 mph - N/A   Clear
4:36 AM 3.2 °F -7.8 °F -9.4 °F 56% 29.36 in 10.0 mi East 5.8 mph - N/A   Clear
4:56 AM 5.0 °F -4.1 °F -9.4 °F 52% 29.36 in 10.0 mi NE 4.6 mph - N/A   Clear
5:16 AM 5.0 °F -10.0 °F -9.4 °F 52% 29.35 in 10.0 mi ENE 10.4 mph - N/A   Scattered Clouds
5:36 AM 5.0 °F -8.1 °F -9.4 °F 52% 29.35 in 10.0 mi NNE 8.1 mph - N/A   Mostly Cloudy
5:56 AM 5.0 °F -10.0 °F -11.2 °F 47% 29.34 in 10.0 mi ENE 10.4 mph - N/A   Scattered Clouds
6:16 AM 5.0 °F -5.6 °F -11.2 °F 47% 29.34 in 10.0 mi East 5.8 mph - N/A   Partly Cloudy
6:36 AM 3.2 °F -15.3 °F -11.2 °F 51% 29.33 in 10.0 mi ESE 15.0 mph - N/A   Partly Cloudy
6:56 AM 3.2 °F -6.2 °F -11.2 °F 51% 29.33 in 10.0 mi NNE 4.6 mph - N/A   Partly Cloudy
7:16 AM 3.2 °F -10.3 °F -9.4 °F 56% 29.32 in 10.0 mi NE 8.1 mph - N/A   Partly Cloudy
7:36 AM 3.2 °F -11.3 °F -11.2 °F 51% 29.32 in 10.0 mi NNE 9.2 mph - N/A   Partly Cloudy
7:56 AM 5.0 °F -6.9 °F -11.2 °F 47% 29.32 in 10.0 mi NE 6.9 mph - N/A   Mostly Cloudy
8:16 AM 3.2 °F -9.1 °F -9.4 °F 56% 29.31 in 10.0 mi NE 6.9 mph - N/A   Mostly Cloudy
8:36 AM 5.0 °F -6.9 °F -9.4 °F 52% 29.30 in 10.0 mi NE 6.9 mph 17.3 mph N/A   Mostly Cloudy
8:56 AM 6.8 °F -6.9 °F -9.4 °F 48% 29.30 in 10.0 mi NNE 9.2 mph - N/A   Mostly Cloudy
9:16 AM 6.8 °F -5.9 °F -11.2 °F 44% 29.30 in 10.0 mi NE 8.1 mph - N/A   Mostly Cloudy
9:36 AM 6.8 °F -4.8 °F -11.2 °F 44% 29.29 in 10.0 mi NNE 6.9 mph - N/A   Mostly Cloudy
9:56 AM 6.8 °F -4.8 °F -9.4 °F 48% 29.28 in 10.0 mi NNE 6.9 mph - N/A   Mostly Cloudy
10:16 AM 6.8 °F -4.8 °F -11.2 °F 44% 29.28 in 10.0 mi ENE 6.9 mph - N/A   Mostly Cloudy
10:36 AM 6.8 °F -2.0 °F -9.4 °F 48% 29.27 in 10.0 mi NE 4.6 mph - N/A   Mostly Cloudy
10:56 AM 6.8 °F -5.9 °F -9.4 °F 48% 29.26 in 10.0 mi East 8.1 mph 16.1 mph N/A   Mostly Cloudy
11:16 AM 6.8 °F -10.7 °F -7.6 °F 52% 29.26 in 10.0 mi East 15.0 mph 27.6 mph N/A   Mostly Cloudy
11:36 AM 6.8 °F -0.1 °F -7.6 °F 52% 29.25 in 10.0 mi ENE 3.5 mph - N/A   Mostly Cloudy
11:56 AM 6.8 °F -5.9 °F -7.6 °F 52% 29.24 in 10.0 mi East 8.1 mph 16.1 mph N/A   Overcast
12:16 PM 6.8 °F - -7.6 °F 52% 29.22 in 10.0 mi Calm Calm - N/A   Overcast
12:36 PM 6.8 °F -3.5 °F -7.6 °F 52% 29.20 in 10.0 mi ESE 5.8 mph - N/A   Overcast
12:56 PM 6.8 °F -4.8 °F -5.8 °F 56% 29.18 in 5.0 mi NNE 6.9 mph - N/A   Overcast
1:16 PM 6.8 °F -0.1 °F -4.0 °F 61% 29.17 in 5.0 mi East 3.5 mph - N/A   Overcast
1:36 PM 6.8 °F -7.8 °F -4.0 °F 61% 29.16 in 5.0 mi East 10.4 mph 18.4 mph N/A   Overcast
1:56 PM 6.8 °F -2.0 °F -0.4 °F 72% 29.16 in 1.5 mi SSE 4.6 mph - N/A   Overcast
2:16 PM 6.8 °F -6.9 °F -0.4 °F 72% 29.14 in 1.5 mi ENE 9.2 mph - N/A   Overcast
2:36 PM 8.6 °F -1.3 °F 1.4 °F 73% 29.14 in 1.5 mi ENE 5.8 mph - N/A   Overcast
2:56 PM 8.6 °F 0.1 °F 1.4 °F 73% 29.13 in 1.0 mi ENE 4.6 mph - N/A   Overcast
3:16 PM 8.6 °F - 3.2 °F 79% 29.12 in 1.0 mi Calm Calm - N/A   Overcast
3:36 PM 6.8 °F -2.0 °F 3.2 °F 85% 29.12 in 1.0 mi NNE 4.6 mph - N/A   Overcast
3:56 PM 8.6 °F 2.0 °F 3.2 °F 79% 29.11 in 1.0 mi East 3.5 mph - N/A   Overcast
4:16 PM 8.6 °F - 3.2 °F 79% 29.11 in 1.0 mi Calm Calm - N/A   Overcast
4:36 PM 6.8 °F -2.0 °F 1.4 °F 79% 29.10 in 1.0 mi NNE 4.6 mph - N/A   Overcast
4:56 PM 6.8 °F -0.1 °F 3.2 °F 85% 29.09 in 1.0 mi NE 3.5 mph - N/A   Overcast
5:16 PM 6.8 °F -0.1 °F 3.2 °F 85% 29.09 in 1.0 mi ENE 3.5 mph - N/A   Overcast
5:36 PM 6.8 °F - 3.2 °F 85% 29.08 in 1.0 mi Calm Calm - N/A   Overcast
5:56 PM 6.8 °F -3.5 °F 3.2 °F 85% 29.08 in 1.5 mi ENE 5.8 mph - N/A   Overcast
6:16 PM 6.8 °F -2.0 °F 3.2 °F 85% 29.08 in 1.5 mi ENE 4.6 mph - N/A   Overcast
6:36 PM 6.8 °F -2.0 °F 3.2 °F 85% 29.08 in 1.5 mi NE 4.6 mph - N/A   Overcast
6:56 PM 6.8 °F -3.5 °F 3.2 °F 85% 29.06 in 1.5 mi East 5.8 mph - N/A   Overcast
7:16 PM 6.8 °F - 1.4 °F 79% 29.06 in 1.5 mi Calm Calm - N/A   Overcast
7:36 PM 8.6 °F 2.0 °F -0.4 °F 67% 29.05 in 1.5 mi East 3.5 mph - N/A   Overcast
7:56 PM 8.6 °F 0.1 °F -0.4 °F 67% 29.04 in 2.0 mi ENE 4.6 mph - N/A   Overcast
8:16 PM 8.6 °F -1.3 °F -0.4 °F 67% 29.04 in 2.0 mi East 5.8 mph - N/A   Overcast
8:36 PM 8.6 °F - 1.4 °F 73% 29.03 in 2.0 mi Calm Calm - N/A   Overcast
8:56 PM 8.6 °F -2.6 °F -0.4 °F 67% 29.03 in 1.5 mi East 6.9 mph - N/A   Overcast
9:16 PM 8.6 °F - 1.4 °F 73% 29.02 in 1.5 mi Calm Calm - N/A   Overcast
9:36 PM 8.6 °F -1.3 °F 1.4 °F 73% 29.02 in 1.5 mi SE 5.8 mph - N/A   Overcast
9:56 PM 8.6 °F - 1.4 °F 73% 29.01 in 1.5 mi Calm Calm - N/A   Overcast
10:16 PM 8.6 °F -1.3 °F 1.4 °F 73% 29.01 in 1.5 mi SE 5.8 mph - N/A   Overcast
10:36 PM 8.6 °F - 1.4 °F 73% 29.01 in 1.8 mi Calm Calm - N/A   Overcast
10:56 PM 8.6 °F 2.0 °F 1.4 °F 73% 29.01 in 1.0 mi East 3.5 mph - N/A   Overcast
11:16 PM 8.6 °F 0.1 °F 1.4 °F 73% 29.01 in 1.5 mi ESE 4.6 mph - N/A   Overcast
11:36 PM 6.8 °F -0.1 °F 1.4 °F 79% 29.02 in 1.8 mi NNE 3.5 mph - N/A   Overcast
11:56 PM 8.6 °F - 1.4 °F 73% 29.01 in 0.8 mi Calm Calm - N/A   Overcast